Time,TemperatureF,DewpointF,PressureIn,WindDirection,WindDirectionDegrees,WindSpeedMPH,WindSpeedGustMPH,Humidity,HourlyPrecipIn,Conditions,Clouds,dailyrainin,SoftwareType,DateUTC
2013-07-08 00:00:00,53.9,51.3,29.84,NW,314,0.0,4.0,91,0.00,,,0.00,Wunderground v.1.15,2013-07-08 07:00:00,
2013-07-08 00:05:00,53.8,51.2,29.84,NW,314,0.0,4.0,91,0.00,,,0.00,Wunderground v.1.15,2013-07-08 07:05:00,
2013-07-08 00:10:00,53.8,51.2,29.84,North,1,0.0,0.0,91,0.00,,,0.00,Wunderground v.1.15,2013-07-08 07:10:00,
2013-07-08 00:20:00,53.6,51.0,29.84,NNE,15,0.0,0.0,91,0.00,,,0.00,Wunderground v.1.15,2013-07-08 07:20:00,
2013-07-08 00:25:00,53.7,51.4,29.84,NNE,15,0.0,0.0,92,0.00,,,0.00,Wunderground v.1.15,2013-07-08 07:25:00,
2013-07-08 00:30:00,53.6,51.3,29.84,NNE,15,0.0,0.0,92,0.00,,,0.00,Wunderground v.1.15,2013-07-08 07:30:00,
2013-07-08 00:35:00,53.4,50.8,29.84,NNE,15,0.0,0.0,91,0.00,,,0.00,Wunderground v.1.15,2013-07-08 07:35:00,
2013-07-08 00:45:00,53.2,50.6,29.84,NNE,15,0.0,0.0,91,0.00,,,0.00,Wunderground v.1.15,2013-07-08 07:45:00,
2013-07-08 00:50:00,53.0,50.7,29.84,NNE,15,0.0,0.0,92,0.00,,,0.00,Wunderground v.1.15,2013-07-08 07:50:00,
2013-07-08 01:00:00,52.8,50.5,29.84,NNE,15,0.0,1.0,92,0.00,,,0.00,Wunderground v.1.15,2013-07-08 08:00:00,
2013-07-08 01:10:00,52.9,50.9,29.84,NNE,15,0.0,1.0,93,0.00,,,0.00,Wunderground v.1.15,2013-07-08 08:10:00,
2013-07-08 01:20:00,52.8,50.8,29.84,NNE,15,0.0,1.0,93,0.00,,,0.00,Wunderground v.1.15,2013-07-08 08:20:00,
2013-07-08 01:30:00,53.0,51.3,29.84,NNE,15,0.0,1.0,94,0.00,,,0.00,Wunderground v.1.15,2013-07-08 08:30:00,
2013-07-08 01:40:00,53.3,51.6,29.84,NNE,15,0.0,1.0,94,0.00,,,0.00,Wunderground v.1.15,2013-07-08 08:40:00,
2013-07-08 01:50:00,53.7,52.0,29.84,NNE,15,0.0,1.0,94,0.00,,,0.00,Wunderground v.1.15,2013-07-08 08:50:00,
2013-07-08 02:00:00,53.7,52.0,29.84,NNE,15,0.0,1.0,94,0.00,,,0.00,Wunderground v.1.15,2013-07-08 09:00:00,
2013-07-08 02:05:00,53.8,52.1,29.84,NNE,15,0.0,1.0,94,0.00,,,0.00,Wunderground v.1.15,2013-07-08 09:05:00,
2013-07-08 02:15:00,54.0,52.3,29.84,NNE,15,0.0,1.0,94,0.00,,,0.00,Wunderground v.1.15,2013-07-08 09:15:00,
2013-07-08 02:20:00,54.1,52.4,29.84,NNE,15,0.0,1.0,94,0.00,,,0.00,Wunderground v.1.15,2013-07-08 09:20:00,
2013-07-08 02:25:00,54.2,52.8,29.84,NNE,15,0.0,1.0,95,0.00,,,0.00,Wunderground v.1.15,2013-07-08 09:25:00,
2013-07-08 02:30:00,54.4,53.0,29.84,NNE,15,0.0,1.0,95,0.00,,,0.00,Wunderground v.1.15,2013-07-08 09:30:00,
2013-07-08 02:40:00,54.5,52.8,29.84,NNE,15,0.0,1.0,94,0.00,,,0.00,Wunderground v.1.15,2013-07-08 09:40:00,
2013-07-08 02:50:00,54.6,52.9,29.84,NNE,15,0.0,1.0,94,0.00,,,0.00,Wunderground v.1.15,2013-07-08 09:50:00,
2013-07-08 03:00:00,54.8,53.1,29.85,NNE,15,0.0,1.0,94,0.00,,,0.00,Wunderground v.1.15,2013-07-08 10:00:00,
2013-07-08 03:05:00,54.9,53.2,29.84,NNE,15,0.0,1.0,94,0.00,,,0.00,Wunderground v.1.15,2013-07-08 10:05:00,
2013-07-08 03:10:00,54.9,53.2,29.84,NNE,15,0.0,1.0,94,0.00,,,0.00,Wunderground v.1.15,2013-07-08 10:10:00,
2013-07-08 03:15:00,55.0,53.3,29.84,NNE,15,0.0,1.0,94,0.00,,,0.00,Wunderground v.1.15,2013-07-08 10:15:00,
2013-07-08 03:25:00,55.1,53.4,29.85,NNE,15,0.0,1.0,94,0.00,,,0.00,Wunderground v.1.15,2013-07-08 10:25:00,
2013-07-08 03:35:00,55.2,53.5,29.85,North,1,0.0,1.0,94,0.00,,,0.00,Wunderground v.1.15,2013-07-08 10:35:00,
2013-07-08 03:45:00,55.4,53.7,29.85,North,1,0.0,1.0,94,0.00,,,0.00,Wunderground v.1.15,2013-07-08 10:45:00,
2013-07-08 03:50:00,55.4,53.4,29.85,ENE,60,0.0,1.0,93,0.00,,,0.00,Wunderground v.1.15,2013-07-08 10:50:00,
2013-07-08 04:00:00,55.6,53.6,29.85,South,181,0.0,1.0,93,0.00,,,0.00,Wunderground v.1.15,2013-07-08 11:00:00,
2013-07-08 04:10:00,55.7,53.7,29.85,SW,234,0.0,1.0,93,0.00,,,0.00,Wunderground v.1.15,2013-07-08 11:10:00,
2013-07-08 04:15:00,55.8,53.8,29.86,SW,234,0.0,1.0,93,0.00,,,0.00,Wunderground v.1.15,2013-07-08 11:15:00,
2013-07-08 04:25:00,55.8,53.8,29.85,SW,234,0.0,1.0,93,0.00,,,0.00,Wunderground v.1.15,2013-07-08 11:25:00,
2013-07-08 04:35:00,55.8,53.5,29.85,SW,234,0.0,1.0,92,0.00,,,0.00,Wunderground v.1.15,2013-07-08 11:35:00,
2013-07-08 04:45:00,55.9,53.6,29.86,SW,234,0.0,1.0,92,0.00,,,0.00,Wunderground v.1.15,2013-07-08 11:45:00,
2013-07-08 04:55:00,55.9,53.6,29.86,SSE,159,1.0,3.0,92,0.00,,,0.00,Wunderground v.1.15,2013-07-08 11:55:00,
2013-07-08 05:00:00,56.0,53.7,29.86,SSE,159,1.0,1.0,92,0.00,,,0.00,Wunderground v.1.15,2013-07-08 12:00:00,
2013-07-08 05:10:00,56.0,53.7,29.86,SSE,159,0.0,1.0,92,0.00,,,0.00,Wunderground v.1.15,2013-07-08 12:10:00,
2013-07-08 05:15:00,56.0,53.4,29.86,South,174,0.0,2.0,91,0.00,,,0.00,Wunderground v.1.15,2013-07-08 12:15:00,
2013-07-08 05:25:00,55.9,53.3,29.86,South,172,1.0,1.0,91,0.00,,,0.00,Wunderground v.1.15,2013-07-08 12:25:00,
2013-07-08 05:35:00,55.9,53.3,29.86,South,172,0.0,1.0,91,0.00,,,0.00,Wunderground v.1.15,2013-07-08 12:35:00,
2013-07-08 05:40:00,55.9,53.3,29.86,South,172,0.0,1.0,91,0.00,,,0.00,Wunderground v.1.15,2013-07-08 12:40:00,
2013-07-08 05:50:00,55.8,53.2,29.87,SSE,167,1.0,1.0,91,0.00,,,0.00,Wunderground v.1.15,2013-07-08 12:50:00,
2013-07-08 05:55:00,55.7,53.1,29.87,SSE,167,1.0,1.0,91,0.00,,,0.00,Wunderground v.1.15,2013-07-08 12:55:00,
2013-07-08 06:05:00,55.7,53.1,29.87,SSE,166,1.0,3.0,91,0.00,,,0.00,Wunderground v.1.15,2013-07-08 13:05:00,
2013-07-08 06:15:00,55.8,53.2,29.87,SSE,166,0.0,1.0,91,0.00,,,0.00,Wunderground v.1.15,2013-07-08 13:15:00,
2013-07-08 06:25:00,55.9,53.3,29.87,South,169,0.0,1.0,91,0.00,,,0.00,Wunderground v.1.15,2013-07-08 13:25:00,
2013-07-08 06:35:00,55.9,53.0,29.88,WSW,243,1.0,4.0,90,0.00,,,0.00,Wunderground v.1.15,2013-07-08 13:35:00,
2013-07-08 06:45:00,56.0,53.4,29.88,West,261,1.0,2.0,91,0.00,,,0.00,Wunderground v.1.15,2013-07-08 13:45:00,
2013-07-08 06:55:00,56.1,53.5,29.88,South,172,0.0,1.0,91,0.00,,,0.00,Wunderground v.1.15,2013-07-08 13:55:00,
2013-07-08 07:00:00,56.2,53.6,29.88,South,172,0.0,1.0,91,0.00,,,0.00,Wunderground v.1.15,2013-07-08 14:00:00,
2013-07-08 07:10:00,56.4,53.8,29.89,South,172,0.0,1.0,91,0.00,,,0.00,Wunderground v.1.15,2013-07-08 14:10:00,
2013-07-08 07:15:00,56.5,53.9,29.89,SSE,166,1.0,3.0,91,0.00,,,0.00,Wunderground v.1.15,2013-07-08 14:15:00,
2013-07-08 07:25:00,56.7,53.8,29.89,WSW,237,1.0,2.0,90,0.00,,,0.00,Wunderground v.1.15,2013-07-08 14:25:00,
2013-07-08 07:35:00,56.8,53.9,29.89,WSW,237,1.0,3.0,90,0.00,,,0.00,Wunderground v.1.15,2013-07-08 14:35:00,
2013-07-08 07:45:00,57.1,53.9,29.90,SSW,193,0.0,1.0,89,0.00,,,0.00,Wunderground v.1.15,2013-07-08 14:45:00,
2013-07-08 07:55:00,57.5,54.3,29.90,SSW,192,1.0,1.0,89,0.00,,,0.00,Wunderground v.1.15,2013-07-08 14:55:00,
2013-07-08 08:00:00,57.7,54.2,29.90,WSW,241,1.0,2.0,88,0.00,,,0.00,Wunderground v.1.15,2013-07-08 15:00:00,
2013-07-08 08:05:00,57.9,54.4,29.90,SSW,203,2.0,2.0,88,0.00,,,0.00,Wunderground v.1.15,2013-07-08 15:05:00,
2013-07-08 08:10:00,58.1,54.6,29.90,SSW,210,1.0,1.0,88,0.00,,,0.00,Wunderground v.1.15,2013-07-08 15:10:00,
2013-07-08 08:15:00,58.4,54.5,29.90,WSW,248,1.0,2.0,87,0.00,,,0.00,Wunderground v.1.15,2013-07-08 15:15:00,
2013-07-08 08:20:00,58.7,54.5,29.90,South,172,2.0,4.0,86,0.00,,,0.00,Wunderground v.1.15,2013-07-08 15:20:00,
2013-07-08 08:30:00,59.1,54.6,29.91,SSE,168,2.0,2.0,85,0.00,,,0.00,Wunderground v.1.15,2013-07-08 15:30:00,
2013-07-08 08:35:00,59.3,54.8,29.91,SW,214,2.0,5.0,85,0.00,,,0.00,Wunderground v.1.15,2013-07-08 15:35:00,
2013-07-08 08:40:00,59.4,54.9,29.91,West,268,2.0,2.0,85,0.00,,,0.00,Wunderground v.1.15,2013-07-08 15:40:00,
2013-07-08 08:45:00,59.8,55.3,29.90,WSW,240,2.0,3.0,85,0.00,,,0.00,Wunderground v.1.15,2013-07-08 15:45:00,
2013-07-08 08:50:00,60.0,55.2,29.91,SSW,212,2.0,2.0,84,0.00,,,0.00,Wunderground v.1.15,2013-07-08 15:50:00,
2013-07-08 09:00:00,60.8,55.3,29.91,SSW,212,3.0,4.0,82,0.00,,,0.00,Wunderground v.1.15,2013-07-08 16:00:00,
2013-07-08 09:05:00,60.9,55.4,29.91,SW,218,3.0,4.0,82,0.00,,,0.00,Wunderground v.1.15,2013-07-08 16:05:00,
2013-07-08 09:15:00,61.7,55.5,29.91,South,174,2.0,3.0,80,0.00,,,0.00,Wunderground v.1.15,2013-07-08 16:15:00,
2013-07-08 09:20:00,62.4,56.1,29.91,West,263,2.0,4.0,80,0.00,,,0.00,Wunderground v.1.15,2013-07-08 16:20:00,
2013-07-08 09:25:00,62.5,55.5,29.91,WSW,257,3.0,4.0,78,0.00,,,0.00,Wunderground v.1.15,2013-07-08 16:25:00,
2013-07-08 09:35:00,62.6,55.6,29.91,South,188,4.0,5.0,78,0.00,,,0.00,Wunderground v.1.15,2013-07-08 16:35:00,
2013-07-08 09:40:00,63.1,56.1,29.91,SSE,168,4.0,4.0,78,0.00,,,0.00,Wunderground v.1.15,2013-07-08 16:40:00,
2013-07-08 09:50:00,63.5,55.8,29.91,South,190,4.0,4.0,76,0.00,,,0.00,Wunderground v.1.15,2013-07-08 16:50:00,
2013-07-08 10:00:00,64.1,56.0,29.91,SW,224,3.0,3.0,75,0.00,,,0.00,Wunderground v.1.15,2013-07-08 17:00:00,
2013-07-08 10:05:00,64.7,56.2,29.91,SSW,205,3.0,4.0,74,0.00,,,0.00,Wunderground v.1.15,2013-07-08 17:05:00,
2013-07-08 10:15:00,64.9,56.0,29.91,WSW,257,4.0,4.0,73,0.00,,,0.00,Wunderground v.1.15,2013-07-08 17:15:00,
2013-07-08 10:20:00,65.1,56.2,29.91,NW,314,3.0,3.0,73,0.00,,,0.00,Wunderground v.1.15,2013-07-08 17:20:00,
2013-07-08 10:25:00,65.8,56.1,29.91,SW,224,3.0,4.0,71,0.00,,,0.00,Wunderground v.1.15,2013-07-08 17:25:00,
2013-07-08 10:35:00,66.7,56.2,29.91,SW,215,4.0,4.0,69,0.00,,,0.00,Wunderground v.1.15,2013-07-08 17:35:00,
2013-07-08 10:40:00,67.2,56.3,29.91,WSW,258,4.0,4.0,68,0.00,,,0.00,Wunderground v.1.15,2013-07-08 17:40:00,
2013-07-08 10:55:00,67.5,56.6,29.91,South,186,3.0,7.0,68,0.00,,,0.00,Wunderground v.1.15,2013-07-08 17:55:00,
2013-07-08 11:00:00,68.2,56.8,29.92,SW,227,3.0,7.0,67,0.00,,,0.00,Wunderground v.1.15,2013-07-08 18:00:00,
2013-07-08 11:05:00,68.5,56.7,29.92,WSW,258,4.0,7.0,66,0.00,,,0.00,Wunderground v.1.15,2013-07-08 18:05:00,
2013-07-08 11:25:00,69.1,56.8,29.92,SW,233,6.0,6.0,65,0.00,,,0.00,Wunderground v.1.15,2013-07-08 18:25:00,
2013-07-08 11:35:00,69.9,57.2,29.92,SW,230,5.0,6.0,64,0.00,,,0.00,Wunderground v.1.15,2013-07-08 18:35:00,
2013-07-08 11:40:00,69.9,57.2,29.92,SSW,197,6.0,8.0,64,0.00,,,0.00,Wunderground v.1.15,2013-07-08 18:40:00,
2013-07-08 11:45:00,69.8,56.6,29.92,West,267,7.0,8.0,63,0.00,,,0.00,Wunderground v.1.15,2013-07-08 18:45:00,
2013-07-08 11:50:00,69.6,56.9,29.92,SSW,213,7.0,7.0,64,0.00,,,0.00,Wunderground v.1.15,2013-07-08 18:50:00,
2013-07-08 11:55:00,70.1,57.4,29.92,SSW,200,6.0,7.0,64,0.00,,,0.00,Wunderground v.1.15,2013-07-08 18:55:00,
2013-07-08 12:05:00,71.8,57.6,29.92,SSW,213,5.0,6.0,61,0.00,,,0.00,Wunderground v.1.15,2013-07-08 19:05:00,
2013-07-08 12:10:00,72.1,57.0,29.92,WSW,239,6.0,7.0,59,0.00,,,0.00,Wunderground v.1.15,2013-07-08 19:10:00,
2013-07-08 12:20:00,72.8,56.2,29.92,WSW,247,6.0,9.0,56,0.00,,,0.00,Wunderground v.1.15,2013-07-08 19:20:00,
2013-07-08 12:30:00,73.3,56.2,29.92,SSE,164,6.0,6.0,55,0.00,,,0.00,Wunderground v.1.15,2013-07-08 19:30:00,
2013-07-08 12:35:00,73.9,56.2,29.92,WSW,242,6.0,6.0,54,0.00,,,0.00,Wunderground v.1.15,2013-07-08 19:35:00,
2013-07-08 12:45:00,74.4,56.2,29.92,SW,235,6.0,8.0,53,0.00,,,0.00,Wunderground v.1.15,2013-07-08 19:45:00,
2013-07-08 12:55:00,74.8,56.0,29.92,SW,234,5.0,6.0,52,0.00,,,0.00,Wunderground v.1.15,2013-07-08 19:55:00,
2013-07-08 13:00:00,74.8,56.0,29.92,WSW,245,4.0,4.0,52,0.00,,,0.00,Wunderground v.1.15,2013-07-08 20:00:00,
2013-07-08 13:05:00,75.1,55.7,29.92,SW,231,5.0,6.0,51,0.00,,,0.00,Wunderground v.1.15,2013-07-08 20:05:00,
2013-07-08 13:15:00,75.2,55.8,29.92,SSW,205,6.0,15.0,51,0.00,,,0.00,Wunderground v.1.15,2013-07-08 20:15:00,
2013-07-08 13:25:00,75.9,55.9,29.92,SW,233,6.0,11.0,50,0.00,,,0.00,Wunderground v.1.15,2013-07-08 20:25:00,
2013-07-08 13:30:00,75.5,56.1,29.91,WSW,245,6.0,8.0,51,0.00,,,0.00,Wunderground v.1.15,2013-07-08 20:30:00,
2013-07-08 13:40:00,75.9,55.9,29.91,SSW,213,6.0,8.0,50,0.00,,,0.00,Wunderground v.1.15,2013-07-08 20:40:00,
2013-07-08 13:45:00,76.2,56.2,29.91,SSW,193,7.0,9.0,50,0.00,,,0.00,Wunderground v.1.15,2013-07-08 20:45:00,
2013-07-08 13:50:00,76.5,55.9,29.91,WSW,255,6.0,8.0,49,0.00,,,0.00,Wunderground v.1.15,2013-07-08 20:50:00,
2013-07-08 13:55:00,76.5,55.9,29.91,SSW,200,6.0,8.0,49,0.00,,,0.00,Wunderground v.1.15,2013-07-08 20:55:00,
2013-07-08 14:05:00,77.0,56.4,29.91,SW,214,6.0,9.0,49,0.00,,,0.00,Wunderground v.1.15,2013-07-08 21:05:00,
2013-07-08 14:15:00,77.2,56.6,29.91,SSW,205,7.0,8.0,49,0.00,,,0.00,Wunderground v.1.15,2013-07-08 21:15:00,
2013-07-08 14:25:00,77.1,56.5,29.91,WSW,256,7.0,10.0,49,0.00,,,0.00,Wunderground v.1.15,2013-07-08 21:25:00,
2013-07-08 14:45:00,78.0,56.7,29.91,SSE,165,5.0,8.0,48,0.00,,,0.00,Wunderground v.1.15,2013-07-08 21:45:00,
2013-07-08 14:55:00,78.5,57.2,29.91,SW,228,6.0,8.0,48,0.00,,,0.00,Wunderground v.1.15,2013-07-08 21:55:00,
2013-07-08 15:05:00,78.5,56.6,29.90,SW,231,6.0,6.0,47,0.00,,,0.00,Wunderground v.1.15,2013-07-08 22:05:00,
2013-07-08 15:15:00,79.3,56.7,29.90,SW,232,4.0,8.0,46,0.00,,,0.00,Wunderground v.1.15,2013-07-08 22:15:00,
2013-07-08 15:25:00,79.5,56.9,29.90,SW,217,5.0,8.0,46,0.00,,,0.00,Wunderground v.1.15,2013-07-08 22:25:00,
2013-07-08 15:30:00,79.8,57.2,29.90,SW,223,6.0,8.0,46,0.00,,,0.00,Wunderground v.1.15,2013-07-08 22:30:00,
2013-07-08 15:40:00,79.9,57.3,29.90,West,264,5.0,5.0,46,0.00,,,0.00,Wunderground v.1.15,2013-07-08 22:40:00,
2013-07-08 15:50:00,78.9,57.0,29.90,WSW,239,7.0,7.0,47,0.00,,,0.00,Wunderground v.1.15,2013-07-08 22:50:00,
2013-07-08 15:55:00,79.1,57.1,29.90,South,176,7.0,8.0,47,0.00,,,0.00,Wunderground v.1.15,2013-07-08 22:55:00,
2013-07-08 16:05:00,78.9,57.5,29.90,WSW,245,6.0,9.0,48,0.00,,,0.00,Wunderground v.1.15,2013-07-08 23:05:00,
2013-07-08 16:10:00,78.7,57.4,29.90,SSW,207,7.0,11.0,48,0.00,,,0.00,Wunderground v.1.15,2013-07-08 23:10:00,
2013-07-08 16:20:00,78.4,57.7,29.89,SW,230,7.0,7.0,49,0.00,,,0.00,Wunderground v.1.15,2013-07-08 23:20:00,
2013-07-08 16:30:00,78.2,57.5,29.90,SW,215,6.0,9.0,49,0.00,,,0.00,Wunderground v.1.15,2013-07-08 23:30:00,
2013-07-08 16:40:00,78.3,57.6,29.89,West,262,6.0,6.0,49,0.00,,,0.00,Wunderground v.1.15,2013-07-08 23:40:00,
2013-07-08 16:50:00,79.4,58.0,29.89,West,276,4.0,4.0,48,0.00,,,0.00,Wunderground v.1.15,2013-07-08 23:50:00,
2013-07-08 16:55:00,80.0,57.4,29.89,SW,221,3.0,4.0,46,0.00,,,0.00,Wunderground v.1.15,2013-07-08 23:55:00,
2013-07-08 17:00:00,80.0,57.4,29.89,WSW,255,3.0,11.0,46,0.00,,,0.00,Wunderground v.1.15,2013-07-09 00:00:00,
2013-07-08 17:10:00,79.6,57.0,29.88,WSW,249,4.0,11.0,46,0.00,,,0.00,Wunderground v.1.15,2013-07-09 00:10:00,
2013-07-08 17:15:00,79.8,57.2,29.89,SW,214,4.0,11.0,46,0.00,,,0.00,Wunderground v.1.15,2013-07-09 00:15:00,
2013-07-08 17:25:00,79.4,57.4,29.89,SSW,203,4.0,11.0,47,0.00,,,0.00,Wunderground v.1.15,2013-07-09 00:25:00,
2013-07-08 17:30:00,79.3,56.7,29.88,SW,229,4.0,11.0,46,0.00,,,0.00,Wunderground v.1.15,2013-07-09 00:30:00,
2013-07-08 17:40:00,79.5,57.5,29.88,WNW,292,4.0,4.0,47,0.00,,,0.00,Wunderground v.1.15,2013-07-09 00:40:00,
2013-07-08 17:45:00,80.0,57.4,29.88,NW,304,3.0,11.0,46,0.00,,,0.00,Wunderground v.1.15,2013-07-09 00:45:00,
2013-07-08 17:55:00,79.4,57.4,29.88,NNW,330,4.0,11.0,47,0.00,,,0.00,Wunderground v.1.15,2013-07-09 00:55:00,
2013-07-08 18:05:00,78.5,57.2,29.88,WNW,290,4.0,11.0,48,0.00,,,0.00,Wunderground v.1.15,2013-07-09 01:05:00,
2013-07-08 18:10:00,78.6,57.3,29.88,SW,233,3.0,3.0,48,0.00,,,0.00,Wunderground v.1.15,2013-07-09 01:10:00,
2013-07-08 18:20:00,77.4,57.3,29.88,WNW,302,4.0,4.0,50,0.00,,,0.00,Wunderground v.1.15,2013-07-09 01:20:00,
2013-07-08 18:30:00,77.1,57.0,29.88,WNW,292,4.0,11.0,50,0.00,,,0.00,Wunderground v.1.15,2013-07-09 01:30:00,
2013-07-08 18:35:00,76.9,56.8,29.88,SW,219,4.0,11.0,50,0.00,,,0.00,Wunderground v.1.15,2013-07-09 01:35:00,
2013-07-08 18:45:00,76.6,57.1,29.88,West,271,3.0,11.0,51,0.00,,,0.00,Wunderground v.1.15,2013-07-09 01:45:00,
2013-07-08 18:55:00,74.7,56.4,29.88,West,272,3.0,11.0,53,0.00,,,0.00,Wunderground v.1.15,2013-07-09 01:55:00,
2013-07-08 19:05:00,73.9,56.7,29.89,WNW,292,3.0,11.0,55,0.00,,,0.00,Wunderground v.1.15,2013-07-09 02:05:00,
2013-07-08 19:10:00,73.6,56.4,29.88,SSW,205,3.0,7.0,55,0.00,,,0.00,Wunderground v.1.15,2013-07-09 02:10:00,
2013-07-08 19:15:00,72.9,56.8,29.89,WSW,255,3.0,7.0,57,0.00,,,0.00,Wunderground v.1.15,2013-07-09 02:15:00,
2013-07-08 19:25:00,71.9,56.3,29.89,NW,311,3.0,3.0,58,0.00,,,0.00,Wunderground v.1.15,2013-07-09 02:25:00,
2013-07-08 19:35:00,71.8,56.7,29.89,West,281,2.0,2.0,59,0.00,,,0.00,Wunderground v.1.15,2013-07-09 02:35:00,
2013-07-08 19:45:00,71.4,56.3,29.89,WNW,287,2.0,2.0,59,0.00,,,0.00,Wunderground v.1.15,2013-07-09 02:45:00,
2013-07-08 19:55:00,70.8,56.2,29.89,West,266,1.0,2.0,60,0.00,,,0.00,Wunderground v.1.15,2013-07-09 02:55:00,
2013-07-08 20:00:00,70.5,56.4,29.89,SW,218,1.0,6.0,61,0.00,,,0.00,Wunderground v.1.15,2013-07-09 03:00:00,
2013-07-08 20:10:00,69.9,56.3,29.90,West,270,1.0,6.0,62,0.00,,,0.00,Wunderground v.1.15,2013-07-09 03:10:00,
2013-07-08 20:15:00,69.5,56.3,29.90,West,270,0.0,6.0,63,0.00,,,0.00,Wunderground v.1.15,2013-07-09 03:15:00,
2013-07-08 20:35:00,67.5,55.3,29.90,SSW,204,1.0,6.0,65,0.00,,,0.00,Wunderground v.1.15,2013-07-09 03:35:00,
2013-07-08 20:45:00,66.3,55.0,29.90,SSW,204,1.0,6.0,67,0.00,,,0.00,Wunderground v.1.15,2013-07-09 03:45:00,
2013-07-08 21:00:00,65.0,54.6,29.91,SSW,204,0.0,6.0,69,0.00,,,0.00,Wunderground v.1.15,2013-07-09 04:00:00,
2013-07-08 21:05:00,64.7,54.7,29.91,SSW,204,0.0,6.0,70,0.00,,,0.00,Wunderground v.1.15,2013-07-09 04:05:00,
2013-07-08 21:10:00,64.4,54.8,29.91,WNW,290,0.0,6.0,71,0.00,,,0.00,Wunderground v.1.15,2013-07-09 04:10:00,
2013-07-08 21:20:00,63.8,54.6,29.91,WNW,301,0.0,6.0,72,0.00,,,0.00,Wunderground v.1.15,2013-07-09 04:20:00,
2013-07-08 21:30:00,63.2,54.0,29.91,WNW,301,0.0,6.0,72,0.00,,,0.00,Wunderground v.1.15,2013-07-09 04:30:00,
2013-07-08 21:40:00,62.7,53.9,29.92,WNW,301,0.0,6.0,73,0.00,,,0.00,Wunderground v.1.15,2013-07-09 04:40:00,
2013-07-08 21:50:00,62.2,53.4,29.92,WNW,301,0.0,6.0,73,0.00,,,0.00,Wunderground v.1.15,2013-07-09 04:50:00,
2013-07-08 21:55:00,61.8,53.1,29.92,WNW,301,0.0,6.0,73,0.00,,,0.00,Wunderground v.1.15,2013-07-09 04:55:00,
2013-07-08 22:00:00,61.5,53.1,29.92,WNW,301,0.0,6.0,74,0.00,,,0.00,Wunderground v.1.15,2013-07-09 05:00:00,
2013-07-08 22:05:00,61.3,53.3,29.92,WNW,301,0.0,6.0,75,0.00,,,0.00,Wunderground v.1.15,2013-07-09 05:05:00,
2013-07-08 22:15:00,61.1,53.1,29.93,WNW,301,0.0,0.0,75,0.00,,,0.00,Wunderground v.1.15,2013-07-09 05:15:00,
2013-07-08 22:25:00,60.5,52.9,29.93,WNW,301,0.0,0.0,76,0.00,,,0.00,Wunderground v.1.15,2013-07-09 05:25:00,
2013-07-08 22:35:00,59.8,53.3,29.94,WSW,254,0.0,0.0,79,0.00,,,0.00,Wunderground v.1.15,2013-07-09 05:35:00,
2013-07-08 22:45:00,59.3,53.1,29.94,WSW,254,0.0,0.0,80,0.00,,,0.00,Wunderground v.1.15,2013-07-09 05:45:00,
2013-07-08 22:50:00,59.0,53.2,29.94,WSW,254,0.0,0.0,81,0.00,,,0.00,Wunderground v.1.15,2013-07-09 05:50:00,
2013-07-08 22:55:00,58.7,52.5,29.94,East,88,0.0,0.0,80,0.00,,,0.00,Wunderground v.1.15,2013-07-09 05:55:00,
2013-07-08 23:00:00,58.5,52.7,29.94,East,91,0.0,0.0,81,0.00,,,0.00,Wunderground v.1.15,2013-07-09 06:00:00,
2013-07-08 23:10:00,58.1,52.6,29.94,SSW,196,0.0,0.0,82,0.00,,,0.00,Wunderground v.1.15,2013-07-09 06:10:00,
2013-07-08 23:20:00,57.6,52.5,29.94,SSW,196,0.0,0.0,83,0.00,,,0.00,Wunderground v.1.15,2013-07-09 06:20:00,
2013-07-08 23:25:00,57.3,52.5,29.95,SSW,196,0.0,0.0,84,0.00,,,0.00,Wunderground v.1.15,2013-07-09 06:25:00,
2013-07-08 23:30:00,57.1,52.3,29.94,SSW,196,0.0,0.0,84,0.00,,,0.00,Wunderground v.1.15,2013-07-09 06:30:00,
2013-07-08 23:40:00,56.5,51.7,29.95,SSW,196,0.0,0.0,84,0.00,,,0.00,Wunderground v.1.15,2013-07-09 06:40:00,
2013-07-08 23:50:00,56.0,51.2,29.95,SSW,196,0.0,0.0,84,0.00,,,0.00,Wunderground v.1.15,2013-07-09 06:50:00,
2013-07-08 23:55:00,55.8,51.0,29.95,SSW,196,0.0,0.0,84,0.00,,,0.00,Wunderground v.1.15,2013-07-09 06:55:00,